Time,TemperatureF,DewpointF,PressureIn,WindDirection,WindDirectionDegrees,WindSpeedMPH,WindSpeedGustMPH,Humidity,HourlyPrecipIn,Conditions,Clouds,dailyrainin,SoftwareType,DateUTC
2015-02-26 00:01:00,5.0,-10.0,30.32,NNE,13,5.0,-999.0,50,-99.99,,,0.00,weatherlink.com 1.10,2015-02-26 06:01:00,
2015-02-26 00:16:00,4.3,-11.0,30.32,North,3,0.0,-999.0,50,-99.99,,,0.00,weatherlink.com 1.10,2015-02-26 06:16:00,
2015-02-26 00:31:00,4.1,-11.0,30.32,NNW,340,3.0,-999.0,50,-99.99,,,0.00,weatherlink.com 1.10,2015-02-26 06:31:00,
2015-02-26 00:46:00,3.7,-11.0,30.33,NNE,32,2.0,-999.0,50,-99.99,,,0.00,weatherlink.com 1.10,2015-02-26 06:46:00,
2015-02-26 01:01:00,3.4,-11.0,30.33,NNE,30,5.0,-999.0,50,-99.99,,,0.00,weatherlink.com 1.10,2015-02-26 07:01:00,
2015-02-26 01:16:00,2.8,-12.0,30.34,NNE,23,0.0,-999.0,51,-99.99,,,0.00,weatherlink.com 1.10,2015-02-26 07:16:00,
2015-02-26 01:31:00,2.6,-12.0,30.34,North,0,4.0,-999.0,51,-99.99,,,0.00,weatherlink.com 1.10,2015-02-26 07:31:00,
2015-02-26 01:46:00,2.4,-12.0,30.35,NNE,20,4.0,-999.0,51,-99.99,,,0.00,weatherlink.com 1.10,2015-02-26 07:46:00,
2015-02-26 02:01:00,2.0,-12.0,30.35,North,356,0.0,-999.0,51,-99.99,,,0.00,weatherlink.com 1.10,2015-02-26 08:01:00,
2015-02-26 02:16:00,1.8,-13.0,30.36,North,0,5.0,-999.0,51,-99.99,,,0.00,weatherlink.com 1.10,2015-02-26 08:16:00,
2015-02-26 02:31:00,1.5,-12.0,30.36,North,0,2.0,-999.0,52,-99.99,,,0.00,weatherlink.com 1.10,2015-02-26 08:31:00,
2015-02-26 02:47:00,1.1,-13.0,30.37,NNW,347,0.0,-999.0,52,-99.99,,,0.00,weatherlink.com 1.10,2015-02-26 08:47:00,
2015-02-26 03:02:00,0.7,-13.0,30.37,North,3,0.0,-999.0,53,-99.99,,,0.00,weatherlink.com 1.10,2015-02-26 09:02:00,
2015-02-26 03:17:00,0.3,-13.0,30.37,NNW,328,0.0,-999.0,54,-99.99,,,0.00,weatherlink.com 1.10,2015-02-26 09:17:00,
2015-02-26 03:32:00,-0.2,-13.0,30.38,NNW,340,0.0,-999.0,55,-99.99,,,0.00,weatherlink.com 1.10,2015-02-26 09:32:00,
2015-02-26 03:47:00,-0.4,-13.0,30.38,NNW,338,0.0,-999.0,55,-99.99,,,0.00,weatherlink.com 1.10,2015-02-26 09:47:00,
2015-02-26 04:02:00,-0.6,-13.0,30.38,NW,326,0.0,-999.0,56,-99.99,,,0.00,weatherlink.com 1.10,2015-02-26 10:02:00,
2015-02-26 04:17:00,-0.8,-13.0,30.39,NNW,343,0.0,-999.0,56,-99.99,,,0.00,weatherlink.com 1.10,2015-02-26 10:17:00,
2015-02-26 04:32:00,-1.2,-14.0,30.39,North,349,0.0,-999.0,56,-99.99,,,0.00,weatherlink.com 1.10,2015-02-26 10:32:00,
2015-02-26 04:47:00,-1.4,-13.0,30.40,NW,326,3.0,-999.0,57,-99.99,,,0.00,weatherlink.com 1.10,2015-02-26 10:47:00,
2015-02-26 05:02:00,-1.6,-13.0,30.41,NNW,329,0.0,-999.0,58,-99.99,,,0.00,weatherlink.com 1.10,2015-02-26 11:02:00,
2015-02-26 05:17:00,-1.8,-13.0,30.41,NNW,338,0.0,-999.0,58,-99.99,,,0.00,weatherlink.com 1.10,2015-02-26 11:17:00,
2015-02-26 05:32:00,-2.2,-13.0,30.42,NNW,328,1.0,-999.0,59,-99.99,,,0.00,weatherlink.com 1.10,2015-02-26 11:32:00,
2015-02-26 05:47:00,-2.4,-14.0,30.42,NNW,340,0.0,-999.0,59,-99.99,,,0.00,weatherlink.com 1.10,2015-02-26 11:47:00,
2015-02-26 06:02:00,-2.6,-13.0,30.43,NNW,339,0.0,-999.0,60,-99.99,,,0.00,weatherlink.com 1.10,2015-02-26 12:02:00,
2015-02-26 06:18:00,-2.8,-13.0,30.44,NW,326,0.0,-999.0,61,-99.99,,,0.00,weatherlink.com 1.10,2015-02-26 12:18:00,
2015-02-26 06:33:00,-3.1,-14.0,30.44,North,358,3.0,-999.0,61,-99.99,,,0.00,weatherlink.com 1.10,2015-02-26 12:33:00,
2015-02-26 06:48:00,-3.3,-14.0,30.45,NW,306,0.0,-999.0,61,-99.99,,,0.00,weatherlink.com 1.10,2015-02-26 12:48:00,
2015-02-26 07:03:00,-3.5,-14.0,30.46,NW,321,0.0,-999.0,62,-99.99,,,0.00,weatherlink.com 1.10,2015-02-26 13:03:00,
2015-02-26 07:18:00,-3.3,-13.0,30.47,North,1,0.0,-999.0,62,-99.99,,,0.00,weatherlink.com 1.10,2015-02-26 13:18:00,
2015-02-26 07:33:00,-2.8,-13.0,30.47,NW,314,0.0,-999.0,62,-99.99,,,0.00,weatherlink.com 1.10,2015-02-26 13:33:00,
2015-02-26 07:48:00,-2.2,-13.0,30.47,NW,321,0.0,-999.0,61,-99.99,,,0.00,weatherlink.com 1.10,2015-02-26 13:48:00,
2015-02-26 08:03:00,-2.0,-13.0,30.48,NNW,332,4.0,-999.0,61,-99.99,,,0.00,weatherlink.com 1.10,2015-02-26 14:03:00,
2015-02-26 08:18:00,-1.6,-12.0,30.49,NNW,328,2.0,-999.0,60,-99.99,,,0.00,weatherlink.com 1.10,2015-02-26 14:18:00,
2015-02-26 08:33:00,-1.4,-13.0,30.49,NNE,25,2.0,-999.0,59,-99.99,,,0.00,weatherlink.com 1.10,2015-02-26 14:33:00,
2015-02-26 08:48:00,-0.8,-12.0,30.50,North,356,2.0,-999.0,58,-99.99,,,0.00,weatherlink.com 1.10,2015-02-26 14:48:00,
2015-02-26 09:03:00,-0.4,-12.0,30.50,NNW,327,2.0,-999.0,57,-99.99,,,0.00,weatherlink.com 1.10,2015-02-26 15:03:00,
2015-02-26 09:18:00,0.3,-12.0,30.50,NNW,335,2.0,-999.0,57,-99.99,,,0.00,weatherlink.com 1.10,2015-02-26 15:18:00,
2015-02-26 09:33:00,0.5,-12.0,30.50,NE,37,4.0,-999.0,56,-99.99,,,0.00,weatherlink.com 1.10,2015-02-26 15:33:00,
2015-02-26 09:49:00,0.7,-12.0,30.50,North,1,2.0,-999.0,55,-99.99,,,0.00,weatherlink.com 1.10,2015-02-26 15:49:00,
2015-02-26 10:04:00,1.7,-12.0,30.50,NNW,333,6.0,-999.0,54,-99.99,,,0.00,weatherlink.com 1.10,2015-02-26 16:04:00,
2015-02-26 10:19:00,2.8,-10.0,30.51,NW,304,2.0,-999.0,54,-99.99,,,0.00,weatherlink.com 1.10,2015-02-26 16:19:00,
2015-02-26 10:34:00,3.2,-11.0,30.52,West,274,2.0,-999.0,53,-99.99,,,0.00,weatherlink.com 1.10,2015-02-26 16:34:00,
2015-02-26 10:49:00,4.1,-10.0,30.52,NNW,339,2.0,-999.0,52,-99.99,,,0.00,weatherlink.com 1.10,2015-02-26 16:49:00,
2015-02-26 11:04:00,4.5,-10.0,30.52,NNW,335,2.0,-999.0,51,-99.99,,,0.00,weatherlink.com 1.10,2015-02-26 17:04:00,
2015-02-26 11:19:00,5.0,-10.0,30.51,NW,321,4.0,-999.0,49,-99.99,,,0.00,weatherlink.com 1.10,2015-02-26 17:19:00,
2015-02-26 11:34:00,5.6,-10.0,30.52,North,1,3.0,-999.0,49,-99.99,,,0.00,weatherlink.com 1.10,2015-02-26 17:34:00,
2015-02-26 11:49:00,6.0,-10.0,30.52,NNW,335,0.0,-999.0,48,-99.99,,,0.00,weatherlink.com 1.10,2015-02-26 17:49:00,
2015-02-26 12:04:00,6.1,-10.0,30.51,NNW,330,2.0,-999.0,47,-99.99,,,0.00,weatherlink.com 1.10,2015-02-26 18:04:00,
2015-02-26 12:19:00,6.1,-11.0,30.50,North,359,7.0,-999.0,46,-99.99,,,0.00,weatherlink.com 1.10,2015-02-26 18:19:00,
2015-02-26 12:34:00,6.9,-10.0,30.50,NNE,21,4.0,-999.0,46,-99.99,,,0.00,weatherlink.com 1.10,2015-02-26 18:34:00,
2015-02-26 12:49:00,7.2,-9.0,30.50,NW,313,3.0,-999.0,48,-99.99,,,0.00,weatherlink.com 1.10,2015-02-26 18:49:00,
2015-02-26 13:05:00,7.2,-10.0,30.50,North,1,1.0,-999.0,46,-99.99,,,0.00,weatherlink.com 1.10,2015-02-26 19:05:00,
2015-02-26 13:20:00,7.9,-9.0,30.50,NW,309,0.0,-999.0,47,-99.99,,,0.00,weatherlink.com 1.10,2015-02-26 19:20:00,
2015-02-26 13:35:00,8.3,-8.0,30.50,North,357,0.0,-999.0,47,-99.99,,,0.00,weatherlink.com 1.10,2015-02-26 19:35:00,
2015-02-26 13:50:00,8.4,-8.0,30.49,West,276,0.0,-999.0,47,-99.99,,,0.00,weatherlink.com 1.10,2015-02-26 19:50:00,
2015-02-26 14:05:00,8.4,-9.0,30.49,NW,313,5.0,-999.0,46,-99.99,,,0.00,weatherlink.com 1.10,2015-02-26 20:05:00,
2015-02-26 14:35:00,7.9,-9.0,30.49,NW,322,0.0,-999.0,46,-99.99,,,0.00,weatherlink.com 1.10,2015-02-26 20:35:00,
2015-02-26 14:50:00,8.6,-8.0,30.49,NNW,340,7.0,-999.0,46,-99.99,,,0.00,weatherlink.com 1.10,2015-02-26 20:50:00,
2015-02-26 15:05:00,8.6,-9.0,30.49,WNW,297,2.0,-999.0,45,-99.99,,,0.00,weatherlink.com 1.10,2015-02-26 21:05:00,
2015-02-26 15:20:00,8.4,-9.0,30.49,WSW,257,0.0,-999.0,45,-99.99,,,0.00,weatherlink.com 1.10,2015-02-26 21:20:00,
2015-02-26 15:35:00,8.6,-9.0,30.49,NNW,331,0.0,-999.0,45,-99.99,,,0.00,weatherlink.com 1.10,2015-02-26 21:35:00,
2015-02-26 15:50:00,8.1,-9.0,30.49,NW,319,3.0,-999.0,45,-99.99,,,0.00,weatherlink.com 1.10,2015-02-26 21:50:00,
2015-02-26 16:05:00,8.1,-8.0,30.49,NNW,345,3.0,-999.0,47,-99.99,,,0.00,weatherlink.com 1.10,2015-02-26 22:05:00,
2015-02-26 16:20:00,8.1,-9.0,30.49,North,356,1.0,-999.0,46,-99.99,,,0.00,weatherlink.com 1.10,2015-02-26 22:20:00,
2015-02-26 16:35:00,8.1,-9.0,30.50,NW,326,5.0,-999.0,46,-99.99,,,0.00,weatherlink.com 1.10,2015-02-26 22:35:00,
2015-02-26 16:50:00,8.3,-9.0,30.49,North,350,0.0,-999.0,46,-99.99,,,0.00,weatherlink.com 1.10,2015-02-26 22:50:00,
2015-02-26 17:06:00,7.9,-9.0,30.50,NNW,335,0.0,-999.0,46,-99.99,,,0.00,weatherlink.com 1.10,2015-02-26 23:06:00,
2015-02-26 17:21:00,7.9,-9.0,30.49,NW,311,3.0,-999.0,46,-99.99,,,0.00,weatherlink.com 1.10,2015-02-26 23:21:00,
2015-02-26 17:36:00,7.4,-9.0,30.50,WNW,295,2.0,-999.0,47,-99.99,,,0.00,weatherlink.com 1.10,2015-02-26 23:36:00,
2015-02-26 17:51:00,6.9,-9.0,30.50,WNW,283,2.0,-999.0,48,-99.99,,,0.00,weatherlink.com 1.10,2015-02-26 23:51:00,
2015-02-26 18:06:00,6.0,-9.0,30.50,WSW,250,0.0,-999.0,51,-99.99,,,0.00,weatherlink.com 1.10,2015-02-27 00:06:00,